DLH403 KEWR-EDDF

Flight info

Callsign DLH403
Flight time N/A
Altitude 31000
Route MERIT DCT HFD DCT PUT DCT BOS DCT WHALE N93B SUPRY/M083F340 DCT 46N050W 48N040W 50N030W 51N020W DCT DINIM DCT ELSOX/M084F350 DCT ARKIL/N0481F350 DCT OXLOW DCT KONAN UL607 KOK DCT REMBA UL607 SPI T180 NIVNU T847 IMCOM IMCOM1B
Aircraft A346/H-SDE2E3FGHIJ3J4J5M1RWXY/LB1D1

Departure

Time 2026-04-24 10:30
Airport Newark Liberty International Airport (KEWR)

Arrival

Time N/A
Airport Frankfurt Main Airport (EDDF)
Time Latitude Longitude Altitude Speed Heading
2026-04-24 10:16 40.69133 -74.17358 29 ft 0 kts 322°
2026-04-24 10:20 40.69120 -74.17345 29 ft 4 kts 318°
2026-04-24 10:20 40.69108 -74.17326 29 ft 4 kts 285°
2026-04-24 10:20 40.69108 -74.17312 28 ft 4 kts 261°
2026-04-24 10:21 40.69106 -74.17282 26 ft 4 kts 287°
2026-04-24 10:21 40.69100 -74.17255 26 ft 4 kts 277°
2026-04-24 10:21 40.69102 -74.17233 27 ft 4 kts 238°
2026-04-24 10:21 40.69115 -74.17219 28 ft 4 kts 201°
2026-04-24 10:22 40.69139 -74.17208 29 ft 4 kts 203°
2026-04-24 10:22 40.69145 -74.17204 30 ft 0 kts 206°
2026-04-24 10:24 40.69132 -74.17212 30 ft 4 kts 206°
2026-04-24 10:24 40.69115 -74.17223 30 ft 4 kts 206°
2026-04-24 10:25 40.69074 -74.17249 30 ft 9 kts 205°
2026-04-24 10:25 40.69000 -74.17296 30 ft 14 kts 205°
2026-04-24 10:25 40.68897 -74.17360 30 ft 17 kts 206°
2026-04-24 10:25 40.68792 -74.17427 30 ft 17 kts 205°
2026-04-24 10:26 40.68685 -74.17495 31 ft 17 kts 206°
2026-04-24 10:26 40.68577 -74.17564 31 ft 17 kts 206°
2026-04-24 10:26 40.68505 -74.17610 30 ft 17 kts 206°
2026-04-24 10:26 40.68397 -74.17680 30 ft 18 kts 206°
2026-04-24 10:27 40.68286 -74.17752 30 ft 18 kts 206°
2026-04-24 10:27 40.68137 -74.17846 30 ft 18 kts 205°
2026-04-24 10:27 40.68060 -74.17893 30 ft 18 kts 205°
2026-04-24 10:27 40.67946 -74.17965 30 ft 18 kts 206°
2026-04-24 10:28 40.67832 -74.18038 30 ft 18 kts 206°
2026-04-24 10:28 40.67724 -74.18107 31 ft 10 kts 206°
2026-04-24 10:28 40.67656 -74.18116 30 ft 11 kts 150°
2026-04-24 10:28 40.67597 -74.18038 30 ft 13 kts 129°
2026-04-24 10:29 40.67565 -74.17964 31 ft 4 kts 71°
2026-04-24 10:29 40.67591 -74.17921 31 ft 7 kts 39°
2026-04-24 10:29 40.67619 -74.17898 30 ft 0 kts 26°
2026-04-24 10:29 40.67725 -74.17829 30 ft 49 kts 26°
2026-04-24 10:30 40.68253 -74.17494 31 ft 116 kts 25°
2026-04-24 10:30 40.69180 -74.16905 31 ft 172 kts 26°
2026-04-24 10:30 40.70333 -74.16170 326 ft 191 kts 23°
2026-04-24 10:30 40.71489 -74.15262 1012 ft 194 kts 35°
2026-04-24 10:31 40.72545 -74.14175 1873 ft 190 kts 36°
2026-04-24 10:31 40.73597 -74.13055 2509 ft 201 kts 36°
2026-04-24 10:31 40.74727 -74.11857 3056 ft 216 kts 35°
2026-04-24 10:31 40.75957 -74.10565 3511 ft 235 kts 36°
2026-04-24 10:32 40.77134 -74.08936 3966 ft 257 kts 45°
2026-04-24 10:32 40.78333 -74.07072 4550 ft 270 kts 45°
2026-04-24 10:32 40.79575 -74.05144 5186 ft 279 kts 44°
2026-04-24 10:32 40.80849 -74.03169 5893 ft 285 kts 44°
2026-04-24 10:33 40.82157 -74.01149 6553 ft 291 kts 43°
2026-04-24 10:33 40.83472 -73.99110 7148 ft 293 kts 43°
2026-04-24 10:33 40.84808 -73.97048 7704 ft 295 kts 42°
2026-04-24 10:33 40.86149 -73.94974 8337 ft 296 kts 41°
2026-04-24 10:34 40.87483 -73.92911 9002 ft 295 kts 40°
2026-04-24 10:34 40.88825 -73.90844 9598 ft 297 kts 40°
2026-04-24 10:34 40.90176 -73.88764 10184 ft 298 kts 39°
2026-04-24 10:34 40.91559 -73.86640 10530 ft 309 kts 39°
2026-04-24 10:35 40.92976 -73.84469 10774 ft 322 kts 40°
2026-04-24 10:35 40.94475 -73.82169 11051 ft 339 kts 40°
2026-04-24 10:35 40.96056 -73.79734 11380 ft 356 kts 40°
2026-04-24 10:35 40.97707 -73.77182 11677 ft 372 kts 41°
2026-04-24 10:36 40.99422 -73.74520 12039 ft 385 kts 41°
2026-04-24 10:36 41.01172 -73.71789 12634 ft 389 kts 41°
2026-04-24 10:36 41.02947 -73.69009 13344 ft 390 kts 40°
2026-04-24 10:36 41.04443 -73.66720 13798 ft 392 kts 40°
2026-04-24 10:37 41.06201 -73.63976 14259 ft 395 kts 40°
2026-04-24 10:37 41.07981 -73.61184 14765 ft 395 kts 40°
2026-04-24 10:37 41.09771 -73.58385 15186 ft 398 kts 39°
2026-04-24 10:37 41.11572 -73.55575 15612 ft 401 kts 39°